Tracking 18852 objects as of 24-Nov-2017
HD Live streaming from Space Station
objects crossing your sky now

FENGYUN 1C DEB

Track FENGYUN 1C DEB now!
10-day predictions


NORAD ID: 30295
Int'l Code: 1999-025ZG
Perigee: 753.5 km
Apogee: 891.1 km
Inclination: 98.8 °
Period: 101.2 minutes
Semi major axis: 7193 km
RCS: 0.0156 m2 (small)
Launch date: May 10, 1999
Source: People's Republic of China (PRC)
Launch site: Taiyaun Space Center, China (TSC)

Note: This is SATELLITE DEBRIS
aabbcc
Your satellite tracking list
Your tracking list is empty




NASA's NSSDC Master Catalog

Two Line Element Set (TLE):
1 30295U 99025ZG  17327.57046844 +.00000068 +00000-0 +47967-4 0  9993
2 30295 098.8363 348.7599 0095612 336.2907 153.8345 14.23024631563308
Source of the keplerian elements: AFSPC